Regional Weather Roundup
Issued by NWS

Home | Current Version | Previous Version | Text Only | Print | Product List | Glossary Off
Versions: 1 2 3 4 5 6 7 8 9 10 11 12 13 14 15 16 17 18 19 20 21 22 23 24 25 26 27 28 29 30 31 32 33 34 35 36 37 38 39 40 41 42 43 44 45 46 47 48 49 50

000
ASUS43 KTOP 272208
RWRKS

WEATHER ROUNDUP FOR KANSAS
NATIONAL WEATHER SERVICE GOODLAND KS
500 PM CDT THU APR 27 2017

NOTE:  "FAIR" INDICATES FEW OR NO CLOUDS BELOW 12,000 FEET WITH NO
SIGNIFICANT WEATHER AND/OR OBSTRUCTIONS TO VISIBILITY.

KSZ001>006-013>018-027>032-041>047-272300-
NORTHWEST KANSAS

CITY           SKY/WX    TMP DP  RH WIND       PRES   REMARKS
GOODLAND       CLOUDY    63  39  41 SE25G36   29.43F
HAYS           LGT RAIN  51  45  79 E21       29.59F
HILL CITY      CLOUDY    51  45  79 E13       29.59S
RUSSELL        RAIN      50  46  86 E16       29.60F
$$

KSZ061>065-074>080-084>089-272300-
SOUTHWEST KANSAS

CITY           SKY/WX    TMP DP  RH WIND       PRES   REMARKS
DODGE CITY     MOSUNNY   62  42  47 SE24G32   29.50F
ELKHART          N/A     66  39  37 W9          N/A
GARDEN CITY    MOSUNNY   63  41  44 E28G37    29.45F
GREAT BEND     LGT RAIN  53  45  74 SE15      29.60F
LIBERAL        MOSUNNY   72  41  32 SE21      29.39F
PRATT          CLOUDY    52  42  67 SE14      29.59S
$$

KSZ066>073-081>083-090>101-272300-
SOUTHEAST KANSAS

CITY           SKY/WX    TMP DP  RH WIND       PRES   REMARKS
CHANUTE        CLOUDY    60  46  59 S6        29.71R
COFFEYVILLE    CLOUDY    63  47  55 SE8       29.69F
HUTCHINSON     CLOUDY    58  42  55 SE16      29.63F
MEDICINE LODGE   N/A     58  45  62 SE9G18    29.58F
NEWTON         CLOUDY    56  45  66 SE16      29.67F
PARSONS        CLOUDY    61  45  55 E6        29.70F
WICHITA INTL   LGT RAIN  57  47  69 SE12      29.65F
WICHITA JABRA  LGT RAIN  57  43  59 E13       29.67R
WICHITA MCCONL LGT RAIN  57  46  67 SE12      29.67S
WINFIELD       CLOUDY    60  42  51 SE12      29.70R
$$

KSZ007>012-019>026-033>040-048>060-102>105-272300-
NORTHEAST KANSAS

CITY           SKY/WX    TMP DP  RH WIND       PRES   REMARKS
CONCORDIA      LGT RAIN  52  44  74 SE7       29.68F
EMPORIA        LGT RAIN  58  42  55 S8        29.71S
LAWRENCE       PTSUNNY   60  38  43 SW5       29.73R
MANHATTAN      CLOUDY    59  39  47 S6        29.70F
MARYSVILLE     CLOUDY    59  36  41 S7        29.70S
OLATHE IND     CLOUDY    60  39  45 W6        29.73S
OLATHE EXE     CLOUDY    58  41  53 S6        29.73R
SALINA         LGT RAIN  58  44  60 E9        29.66F
TOPEKA BILLARD LGT RAIN  59  40  49 S6        29.72S
TOPEKA FORBES  CLOUDY    60  37  42 CALM      29.71F
$$




USA.gov is the U.S. government's official web portal to all federal, state and local government web resources and services.